TimeEDT,TemperatureF,Dew PointF,Humidity,Sea Level PressureIn,VisibilityMPH,Wind Direction,Wind SpeedMPH,Gust SpeedMPH,PrecipitationIn,Events,Conditions,WindDirDegrees,DateUTC
12:14 AM,73.4,66.2,78,29.96,10.0,ESE,3.5,-,N/A,,Clear,120,2013-07-22 04:14:00
12:34 AM,73.4,66.2,78,29.96,10.0,East,4.6,-,N/A,,Clear,90,2013-07-22 04:34:00
12:54 AM,73.4,66.2,78,29.96,10.0,Calm,Calm,-,N/A,,Clear,0,2013-07-22 04:54:00
1:14 AM,73.4,64.4,73,29.95,10.0,East,3.5,-,N/A,,Clear,90,2013-07-22 05:14:00
1:34 AM,73.4,66.2,78,29.94,10.0,Calm,Calm,-,N/A,,Clear,0,2013-07-22 05:34:00
1:54 AM,71.6,66.2,83,29.94,10.0,ENE,5.8,-,N/A,,Clear,60,2013-07-22 05:54:00
2:14 AM,71.6,66.2,83,29.94,10.0,Calm,Calm,-,N/A,,Clear,0,2013-07-22 06:14:00
2:34 AM,71.6,66.2,83,29.94,10.0,Calm,Calm,-,N/A,,Clear,0,2013-07-22 06:34:00
2:54 AM,71.6,64.4,78,29.93,10.0,Calm,Calm,-,N/A,,Clear,0,2013-07-22 06:54:00
3:14 AM,71.6,66.2,83,29.93,10.0,NE,6.9,-,N/A,,Clear,50,2013-07-22 07:14:00
3:34 AM,71.6,64.4,78,29.92,10.0,ENE,4.6,-,N/A,,Clear,60,2013-07-22 07:34:00
3:54 AM,69.8,64.4,83,29.91,10.0,ENE,6.9,-,N/A,,Clear,70,2013-07-22 07:54:00
4:14 AM,69.8,64.4,83,29.91,10.0,ENE,4.6,-,N/A,,Clear,70,2013-07-22 08:14:00
4:34 AM,69.8,64.4,83,29.91,10.0,Calm,Calm,-,N/A,,Clear,0,2013-07-22 08:34:00
4:54 AM,69.8,64.4,83,29.90,10.0,ENE,3.5,-,N/A,,Clear,70,2013-07-22 08:54:00
5:14 AM,69.8,64.4,83,29.90,10.0,Calm,Calm,-,N/A,,Scattered Clouds,0,2013-07-22 09:14:00
5:33 AM,71.6,66.2,83,29.91,10.0,Calm,Calm,-,N/A,,Clear,0,2013-07-22 09:33:00
5:54 AM,69.8,66.2,88,29.91,10.0,Calm,Calm,-,N/A,,Scattered Clouds,0,2013-07-22 09:54:00
6:14 AM,69.8,66.2,88,29.90,10.0,East,3.5,-,N/A,,Clear,80,2013-07-22 10:14:00
6:34 AM,71.6,66.2,83,29.90,10.0,ENE,3.5,-,N/A,,Scattered Clouds,60,2013-07-22 10:34:00
6:54 AM,71.6,66.2,83,29.90,10.0,East,3.5,-,N/A,,Scattered Clouds,80,2013-07-22 10:54:00
7:14 AM,69.8,66.2,88,29.91,10.0,Calm,Calm,-,N/A,,Light Drizzle,0,2013-07-22 11:14:00
7:34 AM,71.6,66.2,83,29.90,10.0,East,4.6,-,N/A,,Scattered Clouds,100,2013-07-22 11:34:00
7:54 AM,71.6,66.2,83,29.90,10.0,ESE,4.6,-,N/A,,Clear,110,2013-07-22 11:54:00
8:14 AM,71.6,66.2,83,29.90,10.0,ESE,4.6,-,N/A,Rain,Light Rain,110,2013-07-22 12:14:00
8:34 AM,73.4,66.2,78,29.89,10.0,ESE,6.9,-,N/A,,Clear,120,2013-07-22 12:34:00
8:54 AM,73.4,68.0,83,29.89,10.0,ESE,3.5,-,N/A,Rain,Light Rain,110,2013-07-22 12:54:00
9:14 AM,73.4,68.0,83,29.89,10.0,ESE,4.6,-,N/A,Rain,Light Rain,110,2013-07-22 13:14:00
9:34 AM,73.4,68.0,83,29.88,10.0,East,4.6,-,N/A,,Light Drizzle,100,2013-07-22 13:34:00
9:54 AM,73.4,68.0,83,29.88,10.0,East,4.6,-,N/A,,Scattered Clouds,90,2013-07-22 13:54:00
10:14 AM,73.4,68.0,83,29.88,10.0,Calm,Calm,-,N/A,,Scattered Clouds,0,2013-07-22 14:14:00
10:34 AM,73.4,68.0,83,29.88,10.0,Calm,Calm,-,N/A,Rain,Light Rain,0,2013-07-22 14:34:00
10:54 AM,73.4,66.2,78,29.88,10.0,SE,5.8,-,N/A,Rain,Light Rain,130,2013-07-22 14:54:00
11:14 AM,75.2,66.2,73,29.88,10.0,ESE,4.6,-,N/A,Rain,Light Rain,120,2013-07-22 15:14:00
11:34 AM,75.2,66.2,73,29.88,10.0,ESE,5.8,-,N/A,,Clear,120,2013-07-22 15:34:00
11:54 AM,75.2,66.2,73,29.87,10.0,ESE,5.8,-,N/A,Rain,Light Rain,120,2013-07-22 15:54:00
12:14 PM,75.2,66.2,73,29.88,10.0,East,3.5,-,N/A,Rain,Light Rain,90,2013-07-22 16:14:00
12:34 PM,75.2,68.0,78,29.88,10.0,Calm,Calm,-,N/A,Rain,Light Rain,0,2013-07-22 16:34:00
12:54 PM,75.2,66.2,73,29.88,10.0,Calm,Calm,-,N/A,,Scattered Clouds,0,2013-07-22 16:54:00
1:14 PM,75.2,66.2,73,29.88,10.0,Calm,Calm,-,N/A,,Clear,0,2013-07-22 17:14:00
1:33 PM,75.2,68.0,78,29.87,10.0,NE,4.6,-,N/A,Rain,Light Rain,50,2013-07-22 17:33:00
1:54 PM,75.2,68.0,78,29.87,10.0,NE,5.8,-,N/A,,Clear,40,2013-07-22 17:54:00
2:14 PM,75.2,68.0,78,29.86,10.0,NE,5.8,-,N/A,Rain,Light Rain,40,2013-07-22 18:14:00
2:34 PM,75.2,68.0,78,29.86,10.0,ENE,4.6,-,N/A,Rain,Light Rain,70,2013-07-22 18:34:00
2:54 PM,77.0,68.0,74,29.85,10.0,ESE,4.6,-,N/A,,Scattered Clouds,120,2013-07-22 18:54:00
3:13 PM,75.2,66.2,73,29.85,10.0,East,4.6,-,N/A,,Mostly Cloudy,100,2013-07-22 19:13:00
3:34 PM,75.2,66.2,73,29.84,10.0,Calm,Calm,-,N/A,,Mostly Cloudy,0,2013-07-22 19:34:00
3:54 PM,77.0,68.0,74,29.83,10.0,East,3.5,-,N/A,,Clear,80,2013-07-22 19:54:00
4:14 PM,78.8,66.2,65,29.83,10.0,NNE,3.5,-,N/A,,Clear,30,2013-07-22 20:14:00
4:34 PM,78.8,68.0,69,29.82,10.0,ENE,4.6,-,N/A,,Clear,70,2013-07-22 20:34:00
4:54 PM,77.0,68.0,74,29.82,10.0,ENE,4.6,-,N/A,,Clear,60,2013-07-22 20:54:00
5:14 PM,77.0,66.2,69,29.81,10.0,Calm,Calm,-,N/A,,Clear,0,2013-07-22 21:14:00
5:34 PM,78.8,66.2,65,29.81,10.0,Calm,Calm,-,N/A,,Clear,0,2013-07-22 21:34:00
5:54 PM,78.8,66.2,65,29.80,10.0,East,3.5,-,N/A,,Clear,100,2013-07-22 21:54:00
6:14 PM,78.8,66.2,65,29.80,10.0,Calm,Calm,-,N/A,,Clear,0,2013-07-22 22:14:00
6:34 PM,78.8,66.2,65,29.80,10.0,Calm,Calm,-,N/A,,Clear,0,2013-07-22 22:34:00
6:54 PM,78.8,64.4,61,29.79,10.0,Calm,Calm,-,N/A,,Clear,0,2013-07-22 22:54:00
7:14 PM,78.8,66.2,65,29.78,10.0,South,4.6,-,N/A,,Clear,180,2013-07-22 23:14:00
7:34 PM,77.0,66.2,69,29.78,10.0,Calm,Calm,-,N/A,,Clear,0,2013-07-22 23:34:00
7:54 PM,77.0,66.2,69,29.78,10.0,SSE,5.8,-,N/A,,Clear,160,2013-07-22 23:54:00
8:14 PM,75.2,69.8,83,29.78,10.0,SE,8.1,-,N/A,,Clear,140,2013-07-23 00:14:00
8:34 PM,75.2,69.8,83,29.78,10.0,SSE,8.1,-,N/A,,Clear,160,2013-07-23 00:34:00
8:54 PM,73.4,68.0,83,29.78,10.0,SSE,6.9,-,N/A,,Clear,160,2013-07-23 00:54:00
9:14 PM,73.4,68.0,83,29.77,10.0,SSE,6.9,-,N/A,,Clear,150,2013-07-23 01:14:00
9:34 PM,73.4,68.0,83,29.78,10.0,SSE,4.6,-,N/A,,Clear,160,2013-07-23 01:34:00
9:54 PM,73.4,68.0,83,29.79,10.0,South,6.9,-,N/A,,Clear,170,2013-07-23 01:54:00
10:14 PM,73.4,66.2,78,29.80,10.0,South,8.1,-,N/A,,Clear,180,2013-07-23 02:14:00
10:34 PM,73.4,68.0,83,29.80,10.0,SSW,4.6,-,N/A,,Clear,200,2013-07-23 02:34:00
10:54 PM,71.6,68.0,88,29.79,10.0,South,6.9,-,N/A,,Clear,180,2013-07-23 02:54:00
11:14 PM,73.4,68.0,83,29.79,10.0,South,5.8,-,N/A,,Clear,170,2013-07-23 03:14:00
11:34 PM,73.4,68.0,83,29.79,10.0,South,6.9,-,N/A,,Clear,180,2013-07-23 03:34:00
11:54 PM,73.4,68.0,83,29.78,10.0,South,6.9,-,N/A,,Clear,190,2013-07-23 03:54:00